[[{"header":{"parameterUnit":"m.s-1","parameterCategory":2,"la1":30.2991,"la2":30.254,"lo1":-89.0895,"lo2":-89.0444,"dy":0.0017,"dx":0.0017,"nx":28,"ny":28,"refTime":"2025-04-27T09:00:00:Z","depth":"0","parameterNumber":2,"parameterNumberName":"U-component_of_CURRENTS"},"data":[0,0,0,0,0,0,0,0,0,0,0,0,0,0,0,0,0,0,0,0,0,0,0,0,0,0,0,0,0,0,0,0,0,0,0,0,0,0,0,0,0,0,0,0,0,0,0,0,0,0,0,0,0,0,0,0,0,0,-0.2621,-0.2621,0,-0.2628,-0.2628,-0.2627,-0.2597,-0.2597,-0.2597,-0.2596,-0.2516,-0.2515,-0.2513,0,0,0,0,0,0,0,0,0,0,0,0,0,-0.248,-0.2483,-0.262,-0.2621,-0.2622,-0.2628,-0.2628,-0.2627,-0.2597,-0.2597,-0.2597,-0.2596,-0.2517,-0.2515,-0.2513,0,0,0,0,0,0,0,0,0,0,0,0,0,-0.2514,-0.2484,-0.262,-0.2612,-0.2612,-0.2628,-0.2628,-0.2627,-0.2598,-0.2597,-0.2597,-0.2596,-0.2518,-0.2515,-0.2512,-0.2505,0,0,-0.2504,-0.2503,0,0,0,0,0,0,0,0,-0.2512,-0.2519,-0.2613,-0.2613,-0.2613,-0.2616,-0.2549,-0.2584,-0.2598,-0.2597,-0.2596,-0.2596,-0.2546,-0.2541,-0.2536,-0.2502,-0.2498,-0.2504,-0.2502,-0.2501,-0.25,0,0,0,0,0,0,0,-0.251,-0.2518,-0.2617,-0.2614,-0.2614,-0.2574,-0.2578,-0.2555,-0.2568,-0.2597,-0.2596,-0.2607,-0.2544,-0.2539,-0.2534,-0.2497,-0.2504,-0.2501,-0.25,-0.2499,-0.2444,-0.2444,0,0,0,0,0,0,-0.2528,-0.2516,-0.2617,-0.2618,-0.2567,-0.2578,-0.2582,-0.2611,-0.257,-0.2566,-0.2607,-0.2605,-0.2544,-0.2537,-0.2531,-0.2516,-0.2501,-0.2498,-0.2497,-0.2444,-0.2444,-0.2444,0,0,0,0,0,0,-0.2525,-0.2537,-0.2617,-0.257,-0.2579,-0.2582,-0.2613,-0.2611,-0.2608,-0.258,-0.2572,-0.2607,-0.2543,-0.2535,-0.251,-0.2513,-0.2497,-0.2495,-0.2444,-0.2444,-0.2444,-0.249,0,0,0,0,0,0,-0.2521,-0.2537,-0.255,-0.2573,-0.2582,-0.263,-0.2614,-0.2612,-0.2618,-0.2616,-0.2577,-0.2569,-0.2542,-0.2515,-0.2508,-0.2509,-0.2492,-0.2443,-0.2444,-0.2444,-0.2488,-0.2491,-0.2494,0,0,0,0,0,-0.2516,-0.2545,-0.2551,-0.2563,-0.2606,-0.2631,-0.2631,-0.2627,-0.2619,-0.262,-0.2593,-0.257,-0.2512,-0.2513,-0.2504,-0.2505,-0.2443,-0.2444,-0.2444,-0.2486,-0.2491,-0.2494,0,0,0,0,0,0,-0.2487,-0.2546,-0.2553,-0.2597,-0.2614,-0.2628,-0.2631,-0.2632,-0.2613,-0.2605,-0.2572,-0.2562,-0.2544,-0.2519,-0.2521,-0.2491,-0.2474,-0.2473,-0.2509,-0.2513,-0.2516,-0.2508,-0.249,0,0,0,0,0,-0.2491,-0.2526,-0.2568,-0.2596,-0.2611,-0.2621,-0.2627,-0.2629,-0.2624,-0.2616,-0.2591,-0.2561,-0.254,-0.2522,-0.2499,-0.2481,-0.2455,-0.2476,-0.2479,-0.2482,-0.247,-0.2458,-0.2459,-0.2446,-0.2446,-0.2446,0,0,-0.2483,-0.2522,-0.2538,-0.2591,-0.2602,-0.2618,-0.2621,-0.2639,-0.2638,-0.2609,-0.2588,-0.2573,-0.2539,-0.2521,-0.251,-0.2498,-0.247,-0.2482,-0.2485,-0.2471,-0.2459,-0.246,-0.2461,-0.2446,-0.2446,-0.2446,0,0,-0.2484,-0.2526,-0.255,-0.2571,-0.2604,-0.2615,-0.2624,-0.2643,-0.2638,-0.2629,-0.2608,-0.2594,-0.2557,-0.2536,-0.252,-0.2526,-0.2493,-0.2522,-0.2525,-0.2515,-0.2516,-0.2516,-0.2479,-0.2476,-0.2519,-0.2519,-0.2519,0,-0.2467,-0.2511,-0.2555,-0.2579,-0.259,-0.2616,-0.2627,-0.2632,-0.2634,-0.2629,-0.2624,-0.2586,-0.2562,-0.2541,-0.2541,-0.2533,-0.2514,-0.2516,-0.252,-0.252,-0.2519,-0.2481,-0.2477,-0.2521,-0.2521,-0.252,-0.252,0,-0.2485,-0.2511,-0.2527,-0.2568,-0.2585,-0.26,-0.2626,-0.2632,-0.2633,-0.2634,-0.2623,-0.26,-0.2574,-0.2574,-0.2554,-0.2544,-0.2526,-0.2532,-0.2512,-0.2524,-0.2482,-0.2477,-0.2524,-0.2523,-0.2523,-0.2522,0,0,-0.246,-0.2526,-0.2526,-0.2533,-0.2578,-0.2591,-0.2605,-0.2621,-0.2621,-0.2625,-0.2617,-0.2597,-0.2595,-0.2576,-0.2564,-0.2552,-0.2534,-0.254,-0.2538,-0.2505,-0.2492,-0.2394,-0.2379,-0.2549,-0.2549,-0.2548,-0.2461,0,-0.2448,-0.2482,-0.2521,-0.2528,-0.2542,-0.2575,-0.2583,-0.26,-0.2609,-0.261,-0.2608,-0.2595,-0.2594,-0.2583,-0.2576,-0.255,-0.2524,-0.2556,-0.2481,-0.2478,-0.2393,-0.2371,-0.2284,-0.2191,-0.2455,-0.2455,-0.2454,0,-0.2441,-0.2464,-0.2478,-0.2506,-0.2516,-0.2523,-0.2541,-0.2553,-0.2575,-0.2584,-0.2589,-0.2592,-0.2577,-0.2577,-0.2534,-0.2557,-0.2517,-0.2497,-0.2493,-0.2379,-0.2371,-0.2222,-0.2172,-0.2162,-0.2446,-0.2446,-0.2447,0,-0.2385,-0.2426,-0.2431,-0.2442,-0.2486,-0.2489,-0.2505,-0.2535,-0.2542,-0.2563,-0.257,-0.2571,-0.2556,-0.2535,-0.249,-0.2515,-0.2432,-0.2462,-0.2331,-0.2324,-0.2219,-0.2202,-0.2148,-0.2414,-0.2414,-0.2415,-0.2415,0,-0.2354,-0.2351,-0.2403,-0.2403,-0.2396,-0.2445,-0.2442,-0.2466,-0.2499,-0.2503,-0.2544,-0.2541,-0.2546,-0.2509,-0.2478,-0.2371,-0.2418,-0.2309,-0.229,-0.223,-0.2216,-0.2177,-0.2211,-0.2411,-0.2412,-0.2413,-0.2413,0,-0.2284,-0.2325,-0.2325,-0.2364,-0.2369,-0.236,-0.2394,-0.2397,-0.2445,-0.2452,-0.2459,-0.2499,-0.2454,-0.243,-0.2376,-0.2328,-0.2209,-0.2202,-0.2112,-0.2083,-0.1955,-0.1995,-0.19,-0.1842,-0.2049,-0.2046,-0.2043,0,-0.225,-0.2247,-0.2275,-0.2265,-0.2277,-0.228,-0.2283,-0.2346,-0.236,-0.242,-0.2414,-0.2396,-0.235,-0.2231,-0.2149,-0.2043,-0.2075,-0.1904,-0.1931,-0.1908,-0.1941,-0.1981,-0.1943,-0.1812,-0.1808,-0.1804,-0.1801,0,-0.2165,-0.218,-0.2178,-0.2166,-0.2162,-0.2163,-0.2179,-0.2186,-0.2265,-0.2277,-0.2279,-0.2249,-0.2156,-0.2014,-0.1882,-0.182,-0.1864,-0.1828,-0.1839,-0.1762,-0.1768,-0.1715,-0.1905,-0.1771,-0.1774,-0.1776,-0.1778,-0.1779,-0.2082,-0.206,-0.2062,-0.2034,-0.2035,-0.202,-0.1979,-0.2026,-0.2021,-0.2017,-0.2091,-0.2018,-0.1939,-0.1739,-0.166,-0.1527,-0.161,-0.1504,-0.1555,-0.1598,-0.1534,-0.163,-0.1458,-0.1459,-0.146,-0.1461,-0.1462,0,-0.1963,-0.1949,-0.1926,-0.189,-0.1841,-0.1886,-0.1882,-0.1828,-0.1778,-0.1822,-0.1794,-0.1736,-0.1579,-0.1522,-0.1388,-0.13,-0.1281,-0.1282,-0.1346,-0.132,-0.1421,-0.1401,-0.1167,-0.1167,-0.1167,-0.1167,-0.1167,-0.1167,-0.1897,-0.1832,-0.1821,-0.1694,-0.1669,-0.1562,-0.1529,-0.1479,-0.1473,-0.141,-0.1411,-0.1439,-0.1411,-0.1469,-0.1328,-0.1242,-0.1232,-0.118,-0.1212,-0.133,-0.1357,-0.1382,-0.1371,-0.1134,-0.1134,-0.1059,-0.1059,-0.1058]},{"header":{"parameterUnit":"m.s-1","parameterCategory":2,"la1":30.2991,"la2":30.254,"lo1":-89.0895,"lo2":-89.0444,"dy":0.0017,"dx":0.0017,"nx":28,"ny":28,"refTime":"2025-04-27T09:00:00:Z","depth":"0","parameterNumber":3,"parameterNumberName":"V-component_of_CURRENTS"},"data":[0,0,0,0,0,0,0,0,0,0,0,0,0,0,0,0,0,0,0,0,0,0,0,0,0,0,0,0,0,0,0,0,0,0,0,0,0,0,0,0,0,0,0,0,0,0,0,0,0,0,0,0,0,0,0,0,0,0,-0.0324,-0.0323,0,-0.0223,-0.0222,-0.022,-0.0156,-0.0156,-0.0155,-0.0155,-0.0061,-0.0059,-0.0057,0,0,0,0,0,0,0,0,0,0,0,0,0,-0.0398,-0.0397,-0.0324,-0.0323,-0.0321,-0.0223,-0.0222,-0.022,-0.0156,-0.0156,-0.0155,-0.0155,-0.0061,-0.0059,-0.0056,0,0,0,0,0,0,0,0,0,0,0,0,0,-0.0339,-0.0397,-0.0324,-0.0278,-0.0272,-0.0223,-0.0221,-0.022,-0.0156,-0.0156,-0.0155,-0.0154,-0.0062,-0.0059,-0.0056,-0.0048,0,0,-0.0046,-0.0045,0,0,0,0,0,0,0,0,-0.0342,-0.0336,-0.0286,-0.0281,-0.0275,-0.0201,-0.0213,-0.0163,-0.0156,-0.02,-0.0155,-0.0154,-0.0109,-0.0102,-0.0084,-0.0043,-0.0039,-0.0046,-0.0044,-0.0043,-0.0042,0,0,0,0,0,0,0,-0.0346,-0.034,-0.0284,-0.0284,-0.0278,-0.024,-0.0231,-0.0203,-0.0159,-0.0197,-0.0192,-0.018,-0.0106,-0.0087,-0.0081,-0.0038,-0.0046,-0.0043,-0.0041,-0.004,0.0027,0.0027,0,0,0,0,0,0,-0.0363,-0.0344,-0.0287,-0.0281,-0.0307,-0.0239,-0.023,-0.0226,-0.0159,-0.0149,-0.0181,-0.0178,-0.0093,-0.0085,-0.0078,-0.0063,-0.0043,-0.004,-0.0038,0.0027,0.0027,0.0027,0,0,0,0,0,0,-0.0365,-0.0359,-0.0291,-0.0309,-0.0298,-0.0239,-0.0235,-0.0224,-0.0205,-0.0147,-0.0137,-0.0173,-0.0092,-0.0082,-0.0054,-0.0059,-0.0038,-0.0035,0.0028,0.0027,0.0027,-0.0035,0,0,0,0,0,0,-0.0367,-0.036,-0.0366,-0.0311,-0.0298,-0.0271,-0.0235,-0.0222,-0.0199,-0.0193,-0.0137,-0.0127,-0.0091,-0.0059,-0.0051,-0.0054,-0.0033,0.0028,0.0028,0.0027,-0.0032,-0.0037,-0.0041,0,0,0,0,0,-0.0371,-0.0383,-0.0367,-0.036,-0.0307,-0.0271,-0.0261,-0.0217,-0.0199,-0.0196,-0.0156,-0.0129,-0.0055,-0.0057,-0.0047,-0.005,0.0028,0.0028,0.0027,-0.0031,-0.0036,-0.0041,0,0,0,0,0,0,-0.0413,-0.0375,-0.0357,-0.0356,-0.032,-0.0261,-0.0254,-0.0224,-0.0189,-0.0185,-0.0131,-0.0119,-0.0098,-0.0066,-0.0069,-0.003,-0.0009,-0.0007,-0.0056,-0.0061,-0.0065,-0.0079,-0.003,0,0,0,0,0,-0.0427,-0.0429,-0.038,-0.0379,-0.0365,-0.0312,-0.0293,-0.0263,-0.0223,-0.0206,-0.0166,-0.0124,-0.0091,-0.0071,-0.0039,-0.0019,0.0025,-0.0013,-0.0017,-0.0021,-0.0026,0.0033,0.0034,0.0026,0.0026,0.0026,0,0,-0.0441,-0.0422,-0.0421,-0.0389,-0.0357,-0.0346,-0.0299,-0.0277,-0.0265,-0.0203,-0.0181,-0.0142,-0.0091,-0.0067,-0.0054,-0.004,0.0006,-0.0022,-0.0025,-0.0028,0.0033,0.0034,0.0035,0.0026,0.0026,0.0026,0,0,-0.0475,-0.0456,-0.047,-0.0446,-0.0409,-0.0376,-0.0374,-0.0321,-0.0296,-0.027,-0.0223,-0.0185,-0.0137,-0.0095,-0.0069,-0.0078,-0.0023,-0.007,-0.0097,-0.004,-0.0039,-0.0037,0.0026,0.0034,-0.0067,-0.0067,-0.0067,0,-0.0494,-0.0503,-0.0466,-0.047,-0.0456,-0.0396,-0.04,-0.0368,-0.0312,-0.0292,-0.0275,-0.0189,-0.0149,-0.0106,-0.0109,-0.0087,-0.0044,-0.0084,-0.0046,-0.0043,-0.004,0.0024,0.0033,-0.007,-0.007,-0.007,-0.0069,0,-0.0536,-0.0539,-0.0544,-0.0532,-0.0512,-0.0506,-0.0457,-0.0436,-0.04,-0.0358,-0.0311,-0.0248,-0.0194,-0.0175,-0.0145,-0.0107,-0.0079,-0.0062,-0.0035,-0.0044,0.0025,0.0036,-0.0075,-0.0073,-0.0073,-0.0072,0,0,-0.0581,-0.0577,-0.0577,-0.0582,-0.0545,-0.0533,-0.0518,-0.0479,-0.0463,-0.0405,-0.0373,-0.031,-0.0265,-0.0233,-0.0181,-0.0131,-0.0074,-0.0096,-0.0091,-0.0038,0.006,0.0104,0.0121,-0.0051,-0.005,-0.0049,0.0103,0,-0.0621,-0.0656,-0.0633,-0.065,-0.066,-0.0605,-0.0594,-0.0551,-0.0501,-0.0457,-0.0376,-0.0331,-0.0288,-0.0261,-0.0205,-0.0109,-0.005,-0.0116,0.0064,0.0069,0.0106,0.0133,0.0188,0.0329,0.0114,0.0115,0.0117,0,-0.0666,-0.0683,-0.0718,-0.0712,-0.0709,-0.0707,-0.0672,-0.0651,-0.0573,-0.0532,-0.0463,-0.0396,-0.0311,-0.0277,-0.0112,-0.0156,-0.0058,0.002,0.0028,0.0097,0.0134,0.0303,0.0358,0.0505,0.0134,0.0133,0.0131,0,-0.0722,-0.0737,-0.077,-0.0769,-0.0753,-0.0753,-0.0737,-0.0677,-0.0656,-0.0575,-0.0543,-0.0432,-0.0367,-0.0241,-0.0078,-0.0095,0.0113,0.0115,0.0254,0.0259,0.0356,0.0366,0.057,0.0234,0.0234,0.0234,0.0233,0,-0.0776,-0.0797,-0.0801,-0.0819,-0.0847,-0.0811,-0.0815,-0.0779,-0.072,-0.069,-0.0587,-0.0527,-0.0356,-0.0216,-0.008,0.013,0.012,0.026,0.0304,0.0336,0.0343,0.0514,0.0558,0.0239,0.0238,0.0237,0.0236,0,-0.0831,-0.0835,-0.0872,-0.0876,-0.0878,-0.0896,-0.0877,-0.0872,-0.0808,-0.0763,-0.074,-0.0585,-0.0395,-0.0207,0.002,0.0138,0.043,0.0401,0.043,0.0473,0.0714,0.075,0.0985,0.1083,0.0572,0.0574,0.0576,0,-0.0862,-0.0891,-0.0923,-0.0948,-0.0953,-0.0969,-0.0977,-0.0927,-0.0912,-0.079,-0.0768,-0.0579,-0.0422,-0.0064,0.0183,0.0451,0.0553,0.0641,0.0615,0.075,0.0824,0.0843,0.091,0.0729,0.0732,0.0734,0.0736,0,-0.0915,-0.0928,-0.096,-0.102,-0.1045,-0.1067,-0.1068,-0.107,-0.0994,-0.0923,-0.0785,-0.0646,-0.0286,0.0051,0.0392,0.0552,0.0757,0.0695,0.0841,0.0969,0.1002,0.1109,0.0605,0.0757,0.0755,0.0753,0.0752,0.0751,-0.0944,-0.0986,-0.1031,-0.1082,-0.1117,-0.1148,-0.1156,-0.1126,-0.1077,-0.0939,-0.0799,-0.0526,-0.0062,0.0438,0.0615,0.1002,0.0948,0.1113,0.115,0.1162,0.1245,0.0781,0.0968,0.0967,0.0967,0.0966,0.0966,0,-0.0978,-0.1026,-0.1086,-0.1145,-0.119,-0.119,-0.1199,-0.1166,-0.1091,-0.091,-0.0725,-0.0154,0.0301,0.0717,0.1239,0.1443,0.1487,0.1544,0.1598,0.1648,0.1262,0.1257,0.1508,0.1508,0.1508,0.1508,0.1507,0.1507,-0.0996,-0.1066,-0.1101,-0.1184,-0.1222,-0.1243,-0.1242,-0.1163,-0.1024,-0.068,-0.0333,-0.0049,0.0559,0.133,0.1799,0.1848,0.2019,0.201,0.209,0.1827,0.1789,0.1753,0.1762,0.2115,0.2115,0.2483,0.2487,0.2489]}],[{"header":{"parameterUnit":"m.s-1","parameterCategory":2,"la1":30.2991,"la2":30.254,"lo1":-89.0895,"lo2":-89.0444,"dy":0.0017,"dx":0.0017,"nx":28,"ny":28,"refTime":"2025-04-27T09:00:00:Z","depth":"2","parameterNumber":2,"parameterNumberName":"U-component_of_CURRENTS"},"data":[0,0,0,0,0,0,0,0,0,0,0,0,0,0,0,0,0,0,0,0,0,0,0,0,0,0,0,0,0,0,0,0,0,0,0,0,0,0,0,0,0,0,0,0,0,0,0,0,0,0,0,0,0,0,0,0,0,0,-0.2193,-0.2194,0,-0.2223,-0.2223,-0.2224,-0.2209,-0.2209,-0.2208,-0.2208,-0.2201,-0.2202,-0.2202,0,0,0,0,0,0,0,0,0,0,0,0,0,-0.2122,-0.2123,-0.2193,-0.2194,-0.2194,-0.2223,-0.2223,-0.2224,-0.221,-0.2209,-0.2208,-0.2208,-0.2201,-0.2202,-0.2202,0,0,0,0,0,0,0,0,0,0,0,0,0,-0.215,-0.2123,-0.2193,-0.2192,-0.2193,-0.2223,-0.2223,-0.2224,-0.221,-0.2209,-0.2208,-0.2207,-0.2201,-0.2201,-0.2202,-0.2222,0,0,-0.2204,-0.2204,0,0,0,0,0,0,0,0,-0.2149,-0.2153,-0.2192,-0.2193,-0.2193,-0.2214,-0.2196,-0.2222,-0.221,-0.2201,-0.2208,-0.2207,-0.2204,-0.2204,-0.2209,-0.2222,-0.2222,-0.2204,-0.2204,-0.2204,-0.2204,0,0,0,0,0,0,0,-0.2147,-0.2151,-0.2203,-0.2193,-0.2193,-0.219,-0.2193,-0.2201,-0.2205,-0.2202,-0.2201,-0.2208,-0.2203,-0.2209,-0.2209,-0.2222,-0.2204,-0.2204,-0.2204,-0.2205,-0.2237,-0.2238,0,0,0,0,0,0,-0.2149,-0.215,-0.2202,-0.2204,-0.2171,-0.2192,-0.2195,-0.2206,-0.2205,-0.2205,-0.2209,-0.2208,-0.2208,-0.2208,-0.2209,-0.2231,-0.2204,-0.2205,-0.2205,-0.2237,-0.2237,-0.2238,0,0,0,0,0,0,-0.2147,-0.2153,-0.2201,-0.2179,-0.2185,-0.2194,-0.2207,-0.2207,-0.2214,-0.2212,-0.221,-0.2216,-0.2208,-0.2208,-0.2219,-0.223,-0.2205,-0.2205,-0.2236,-0.2237,-0.2238,-0.2276,0,0,0,0,0,0,-0.2145,-0.2152,-0.2158,-0.2179,-0.2186,-0.2223,-0.2208,-0.2209,-0.2221,-0.2219,-0.2217,-0.2216,-0.2207,-0.2218,-0.2219,-0.2231,-0.2206,-0.2235,-0.2236,-0.2237,-0.2274,-0.2278,-0.2282,0,0,0,0,0,-0.2142,-0.2156,-0.2159,-0.2165,-0.2195,-0.2224,-0.2227,-0.2229,-0.2222,-0.2231,-0.2228,-0.2216,-0.2225,-0.2219,-0.222,-0.2232,-0.2235,-0.2236,-0.2237,-0.2273,-0.2278,-0.2282,0,0,0,0,0,0,-0.2127,-0.2157,-0.216,-0.2181,-0.2203,-0.2222,-0.223,-0.2235,-0.2241,-0.2237,-0.2228,-0.2227,-0.2241,-0.2233,-0.2227,-0.2244,-0.2226,-0.2227,-0.2253,-0.2257,-0.2261,-0.2252,-0.2206,0,0,0,0,0,-0.2129,-0.2144,-0.2173,-0.2189,-0.2201,-0.2217,-0.2228,-0.2235,-0.2245,-0.2247,-0.2247,-0.2244,-0.2248,-0.2249,-0.2251,-0.2266,-0.2244,-0.2271,-0.2275,-0.2278,-0.2272,-0.2266,-0.2268,-0.2242,-0.2242,-0.2242,0,0,-0.2126,-0.2145,-0.2152,-0.2186,-0.22,-0.2224,-0.2221,-0.2244,-0.2259,-0.2246,-0.2262,-0.2262,-0.2256,-0.2269,-0.2273,-0.2263,-0.2273,-0.228,-0.2283,-0.2274,-0.2267,-0.227,-0.2272,-0.2243,-0.2242,-0.2242,0,0,-0.2129,-0.2148,-0.2162,-0.2185,-0.2215,-0.223,-0.2239,-0.2267,-0.2273,-0.2296,-0.2286,-0.2292,-0.2302,-0.2297,-0.2296,-0.2322,-0.2295,-0.2324,-0.2335,-0.233,-0.2331,-0.2333,-0.2299,-0.2297,-0.2323,-0.2323,-0.2323,0,-0.2123,-0.2147,-0.217,-0.2193,-0.221,-0.2234,-0.2255,-0.2274,-0.2299,-0.2306,-0.2303,-0.2317,-0.2313,-0.2323,-0.2328,-0.233,-0.2313,-0.232,-0.2334,-0.2335,-0.2336,-0.2301,-0.2298,-0.2325,-0.2325,-0.2325,-0.2325,0,-0.2138,-0.216,-0.2172,-0.2207,-0.2231,-0.2255,-0.2288,-0.2309,-0.2321,-0.2334,-0.2353,-0.2353,-0.2355,-0.236,-0.2351,-0.2358,-0.2338,-0.2343,-0.2323,-0.2341,-0.2303,-0.2299,-0.2328,-0.2327,-0.2327,-0.2326,0,0,-0.2111,-0.217,-0.2172,-0.2189,-0.2241,-0.226,-0.2296,-0.2328,-0.2343,-0.2368,-0.2379,-0.2391,-0.2388,-0.2386,-0.2381,-0.2376,-0.2364,-0.2361,-0.236,-0.2326,-0.2331,-0.2237,-0.2224,-0.2376,-0.2376,-0.2376,-0.2298,0,-0.211,-0.2148,-0.2182,-0.2216,-0.2237,-0.2278,-0.2306,-0.234,-0.2364,-0.2383,-0.2392,-0.2401,-0.24,-0.2398,-0.2398,-0.2377,-0.2359,-0.2383,-0.2319,-0.2316,-0.223,-0.2219,-0.2075,-0.1987,-0.2294,-0.2294,-0.2293,0,-0.2105,-0.2133,-0.2165,-0.2216,-0.2229,-0.2254,-0.2297,-0.2328,-0.2368,-0.2386,-0.2405,-0.2412,-0.2413,-0.2408,-0.2379,-0.2396,-0.236,-0.234,-0.2337,-0.2232,-0.2216,-0.2021,-0.1969,-0.2287,-0.2288,-0.2288,-0.2288,0,-0.2057,-0.2116,-0.2136,-0.2156,-0.2222,-0.224,-0.2271,-0.232,-0.2341,-0.2381,-0.2393,-0.2409,-0.2404,-0.2387,-0.2345,-0.2364,-0.2298,-0.232,-0.2197,-0.2189,-0.2042,-0.2021,-0.2284,-0.2284,-0.2284,-0.2285,-0.2285,0,-0.2035,-0.2049,-0.2114,-0.2125,-0.2146,-0.2207,-0.2229,-0.2267,-0.2316,-0.2332,-0.2381,-0.2385,-0.2399,-0.2369,-0.2338,-0.2241,-0.2289,-0.2182,-0.2162,-0.205,-0.2031,-0.2278,-0.2278,-0.2282,-0.2282,-0.2283,-0.2283,0,-0.1969,-0.2018,-0.204,-0.2105,-0.2121,-0.2131,-0.2193,-0.221,-0.2271,-0.2293,-0.2304,-0.2353,-0.2317,-0.23,-0.2254,-0.2208,-0.2142,-0.2091,-0.1942,-0.1905,-0.204,-0.2043,-0.1955,-0.1951,-0.1948,-0.1945,-0.1942,0,-0.1937,-0.1943,-0.2,-0.2008,-0.2033,-0.2065,-0.2084,-0.2165,-0.2189,-0.2263,-0.2262,-0.2257,-0.2216,-0.2113,-0.2035,-0.1935,-0.2027,-0.1751,-0.1763,-0.2015,-0.2006,-0.2014,-0.2022,-0.158,-0.1575,-0.1571,-0.1568,0,-0.1865,-0.1885,-0.1901,-0.1919,-0.1938,-0.196,-0.2,-0.2013,-0.2105,-0.2123,-0.2131,-0.2104,-0.2024,-0.1859,-0.174,-0.1676,-0.1763,-0.1661,-0.1954,-0.169,-0.1657,-0.165,-0.167,-0.153,-0.1534,-0.1537,-0.1539,-0.154,-0.1793,-0.1785,-0.1805,-0.1807,-0.1831,-0.1831,-0.1807,-0.1861,-0.1865,-0.1863,-0.1937,-0.1842,-0.1811,-0.1547,-0.1442,-0.1364,-0.1494,-0.144,-0.1455,-0.1475,-0.1449,-0.1412,-0.1233,-0.1235,-0.1237,-0.1238,-0.124,0,-0.1692,-0.1691,-0.1692,-0.1689,-0.1662,-0.1715,-0.1725,-0.1676,-0.1631,-0.1653,-0.1623,-0.1434,-0.1301,-0.1274,-0.1089,-0.1038,-0.1051,-0.1002,-0.1035,-0.1072,-0.1105,-0.1064,-0.0744,-0.0742,-0.0741,-0.074,0,0,-0.1639,-0.1595,-0.1593,-0.1509,-0.1507,-0.1426,-0.1399,-0.1347,-0.1325,-0.1236,-0.1186,-0.1254,-0.1249,-0.1014,-0.0941,-0.0816,-0.0941,-0.077,-0.1168,-0.1246,-0.1277,-0.1354,-0.1331,0,0,0,0,0]},{"header":{"parameterUnit":"m.s-1","parameterCategory":2,"la1":30.2991,"la2":30.254,"lo1":-89.0895,"lo2":-89.0444,"dy":0.0017,"dx":0.0017,"nx":28,"ny":28,"refTime":"2025-04-27T09:00:00:Z","depth":"2","parameterNumber":3,"parameterNumberName":"V-component_of_CURRENTS"},"data":[0,0,0,0,0,0,0,0,0,0,0,0,0,0,0,0,0,0,0,0,0,0,0,0,0,0,0,0,0,0,0,0,0,0,0,0,0,0,0,0,0,0,0,0,0,0,0,0,0,0,0,0,0,0,0,0,0,0,-0.036,-0.0359,0,-0.0274,-0.0273,-0.0272,-0.0213,-0.0213,-0.0213,-0.0212,-0.0108,-0.0106,-0.0103,0,0,0,0,0,0,0,0,0,0,0,0,0,-0.0398,-0.0398,-0.036,-0.0359,-0.0358,-0.0274,-0.0273,-0.0271,-0.0213,-0.0213,-0.0213,-0.0212,-0.0109,-0.0106,-0.0103,0,0,0,0,0,0,0,0,0,0,0,0,0,-0.0353,-0.0398,-0.036,-0.032,-0.0315,-0.0274,-0.0272,-0.0271,-0.0213,-0.0213,-0.0212,-0.0212,-0.011,-0.0106,-0.0103,-0.0089,0,0,-0.0091,-0.009,0,0,0,0,0,0,0,0,-0.0356,-0.0351,-0.0327,-0.0323,-0.0318,-0.0255,-0.0248,-0.0209,-0.0213,-0.0251,-0.0212,-0.0212,-0.0157,-0.0149,-0.0132,-0.0084,-0.0079,-0.0091,-0.0089,-0.0087,-0.0086,0,0,0,0,0,0,0,-0.0359,-0.0354,-0.0325,-0.0326,-0.032,-0.028,-0.0274,-0.024,-0.0206,-0.0248,-0.0243,-0.0236,-0.0154,-0.0136,-0.013,-0.0078,-0.0091,-0.0088,-0.0086,-0.0084,0.0001,0.0001,0,0,0,0,0,0,-0.0377,-0.0358,-0.0327,-0.0322,-0.0337,-0.028,-0.0273,-0.0274,-0.0207,-0.0196,-0.0236,-0.0234,-0.0143,-0.0134,-0.0126,-0.0099,-0.0087,-0.0084,-0.0082,0.0001,0.0001,0.0001,0,0,0,0,0,0,-0.0378,-0.0375,-0.0331,-0.0338,-0.033,-0.0281,-0.0282,-0.0273,-0.0255,-0.0199,-0.0188,-0.0228,-0.0142,-0.0131,-0.0095,-0.0094,-0.0082,-0.0079,0.0001,0.0001,0.0001,-0.0048,0,0,0,0,0,0,-0.038,-0.0376,-0.0383,-0.034,-0.033,-0.0312,-0.0283,-0.0272,-0.0251,-0.0247,-0.0188,-0.0178,-0.0141,-0.0101,-0.0091,-0.0089,-0.0076,0.0001,0.0001,0.0001,-0.0047,-0.005,-0.0053,0,0,0,0,0,-0.0381,-0.0396,-0.0384,-0.038,-0.0342,-0.0313,-0.0304,-0.0266,-0.0252,-0.0247,-0.0205,-0.0179,-0.0094,-0.0098,-0.0087,-0.0083,0.0001,0.0001,0.0001,-0.0046,-0.005,-0.0053,0,0,0,0,0,0,-0.0412,-0.039,-0.0377,-0.0383,-0.0353,-0.0304,-0.0297,-0.0272,-0.0235,-0.0231,-0.0178,-0.0165,-0.0134,-0.0103,-0.0109,-0.0059,-0.0043,-0.0041,-0.0082,-0.0085,-0.0088,-0.0102,-0.0073,0,0,0,0,0,-0.0425,-0.0432,-0.0396,-0.04,-0.039,-0.0345,-0.0329,-0.0303,-0.0265,-0.0248,-0.0207,-0.0163,-0.0125,-0.0102,-0.0067,-0.0038,-0.0001,-0.0029,-0.0032,-0.0035,-0.0038,0.0016,0.0018,0.0001,0.0001,0.0001,0,0,-0.0437,-0.0426,-0.0429,-0.0407,-0.0382,-0.0371,-0.0334,-0.0315,-0.0301,-0.0244,-0.0215,-0.0175,-0.0122,-0.009,-0.0073,-0.0062,-0.0009,-0.0035,-0.0037,-0.0039,0.0017,0.0018,0.002,0.0001,0.0001,0.0001,0,0,-0.0466,-0.0457,-0.0471,-0.0451,-0.0423,-0.0394,-0.0392,-0.0347,-0.0323,-0.0291,-0.0247,-0.0205,-0.0151,-0.0107,-0.0079,-0.0078,-0.0031,-0.007,-0.009,-0.0037,-0.0035,-0.0033,0.0019,0.0027,-0.0066,-0.0067,-0.0067,0,-0.048,-0.0493,-0.0468,-0.0471,-0.0459,-0.0409,-0.0412,-0.038,-0.0327,-0.0306,-0.0291,-0.02,-0.0157,-0.0107,-0.0106,-0.0084,-0.0049,-0.0081,-0.0041,-0.0038,-0.0035,0.0018,0.0027,-0.0069,-0.0069,-0.0068,-0.0068,0,-0.0515,-0.0521,-0.0527,-0.0518,-0.0501,-0.0495,-0.045,-0.0428,-0.0395,-0.0355,-0.0304,-0.0239,-0.0184,-0.0163,-0.0133,-0.0091,-0.0071,-0.0056,-0.0035,-0.0037,0.002,0.003,-0.0072,-0.0072,-0.0071,-0.007,0,0,-0.0554,-0.0554,-0.0555,-0.0559,-0.0526,-0.0516,-0.0495,-0.0457,-0.0441,-0.0381,-0.035,-0.0278,-0.0239,-0.0205,-0.0156,-0.0107,-0.0053,-0.0079,-0.0075,-0.0032,0.0064,0.0087,0.0101,-0.0034,-0.0032,-0.0031,0.0096,0,-0.0587,-0.0617,-0.0599,-0.0611,-0.0619,-0.057,-0.0555,-0.0512,-0.0466,-0.0423,-0.0343,-0.0297,-0.0255,-0.0229,-0.0173,-0.0087,-0.0031,-0.0089,0.0064,0.0068,0.0086,0.0112,0.0089,0.0201,0.0106,0.0107,0.0109,0,-0.0624,-0.064,-0.0669,-0.0663,-0.0661,-0.0657,-0.0623,-0.06,-0.0525,-0.0487,-0.0421,-0.0357,-0.0272,-0.0241,-0.0088,-0.0129,-0.004,0.0031,0.0038,0.0083,0.011,0.0189,0.0223,0.0126,0.0124,0.0123,0.0122,0,-0.0672,-0.0684,-0.0713,-0.0711,-0.0696,-0.0695,-0.068,-0.0623,-0.0602,-0.0526,-0.0498,-0.0389,-0.0328,-0.0212,-0.0065,-0.0077,0.0106,0.0112,0.0224,0.0227,0.025,0.0253,0.0224,0.0224,0.0224,0.0224,0.0223,0,-0.0715,-0.0734,-0.0741,-0.0756,-0.0781,-0.0748,-0.0752,-0.0718,-0.0663,-0.0636,-0.0538,-0.0484,-0.032,-0.0194,-0.007,0.0111,0.0109,0.0229,0.0264,0.0233,0.0232,0.0195,0.019,0.0228,0.0227,0.0226,0.0226,0,-0.0759,-0.0766,-0.0799,-0.0804,-0.0808,-0.0825,-0.081,-0.0806,-0.0749,-0.071,-0.0687,-0.0543,-0.0375,-0.0201,0.0007,0.0111,0.0274,0.0341,0.0292,0.032,0.036,0.0351,0.0473,0.0475,0.0477,0.0479,0.048,0,-0.0784,-0.081,-0.0844,-0.087,-0.0876,-0.0893,-0.0902,-0.0857,-0.0844,-0.074,-0.072,-0.0551,-0.0413,-0.0099,0.0114,0.0348,0.0343,0.0453,0.0428,0.0365,0.0388,0.0376,0.0365,0.0445,0.0446,0.0447,0.0447,0,-0.0824,-0.084,-0.087,-0.0931,-0.0959,-0.0981,-0.0985,-0.0989,-0.0923,-0.0862,-0.0745,-0.0624,-0.0318,-0.0056,0.0238,0.0367,0.0408,0.0474,0.0442,0.0375,0.0346,0.0365,0.0354,0.0453,0.0452,0.0452,0.0452,0.0452,-0.0846,-0.0884,-0.0931,-0.0983,-0.1021,-0.1054,-0.1063,-0.104,-0.1,-0.0883,-0.0766,-0.0543,-0.0308,0.0129,0.0321,0.05,0.0497,0.0539,0.0535,0.053,0.0493,0.0467,0.0591,0.0591,0.0591,0.0591,0.0592,0,-0.0868,-0.0916,-0.0976,-0.1037,-0.1083,-0.1089,-0.1102,-0.1074,-0.1012,-0.0865,-0.0709,-0.0413,-0.0118,0.0128,0.0418,0.0578,0.0557,0.0598,0.0536,0.053,0.0525,0.0484,0.0582,0.0583,0.0583,0.0583,0,0,-0.0882,-0.0946,-0.0982,-0.1066,-0.111,-0.1137,-0.1139,-0.107,-0.0957,-0.0788,-0.0605,-0.0378,-0.0085,0.0114,0.0311,0.0458,0.0449,0.047,0.0462,0.036,0.0353,0.048,0.0411,0,0,0,0,0]}],[{"header":{"parameterUnit":"m.s-1","parameterCategory":2,"la1":30.2991,"la2":30.254,"lo1":-89.0895,"lo2":-89.0444,"dy":0.0017,"dx":0.0017,"nx":28,"ny":28,"refTime":"2025-04-27T09:00:00:Z","depth":"4","parameterNumber":2,"parameterNumberName":"U-component_of_CURRENTS"},"data":[0,0,0,0,0,0,0,0,0,0,0,0,0,0,0,0,0,0,0,0,0,0,0,0,0,0,0,0,0,0,0,0,0,0,0,0,0,0,0,0,0,0,0,0,0,0,0,0,0,0,0,0,0,0,0,0,0,0,-0.1446,-0.1447,0,-0.1507,-0.1508,-0.1509,-0.1545,-0.1545,-0.1545,-0.1545,-0.1638,-0.164,-0.1642,0,0,0,0,0,0,0,0,0,0,0,0,0,-0.139,-0.1391,-0.1446,-0.1447,-0.1448,-0.1507,-0.1508,-0.1509,-0.1545,-0.1545,-0.1545,-0.1545,-0.1637,-0.164,-0.1642,0,0,0,0,0,0,0,0,0,0,0,0,0,-0.1429,-0.1391,-0.1446,-0.1473,-0.1476,-0.1507,-0.1508,-0.1509,-0.1545,-0.1545,-0.1545,-0.1545,-0.1636,-0.1639,-0.1643,-0.1659,0,0,-0.1653,-0.1655,0,0,0,0,0,0,0,0,-0.1427,-0.1431,-0.1468,-0.1471,-0.1474,-0.1519,-0.1522,-0.1561,-0.1545,-0.1519,-0.1545,-0.1546,-0.1601,-0.1607,-0.1618,-0.1664,-0.1668,-0.1654,-0.1656,-0.1657,-0.1658,0,0,0,0,0,0,0,-0.1424,-0.1429,-0.147,-0.1469,-0.1473,-0.1492,-0.1497,-0.153,-0.1558,-0.1521,-0.1524,-0.153,-0.1603,-0.1614,-0.162,-0.1669,-0.1654,-0.1657,-0.1659,-0.166,-0.1785,-0.1786,0,0,0,0,0,0,-0.1415,-0.1426,-0.1468,-0.1472,-0.1451,-0.1493,-0.1499,-0.1504,-0.1557,-0.1565,-0.153,-0.1532,-0.1608,-0.1616,-0.1623,-0.1705,-0.1657,-0.1661,-0.1663,-0.1784,-0.1785,-0.1787,0,0,0,0,0,0,-0.1413,-0.1418,-0.1466,-0.1451,-0.1458,-0.1493,-0.1499,-0.1505,-0.1542,-0.1564,-0.1573,-0.1563,-0.1609,-0.1619,-0.1676,-0.1706,-0.1662,-0.1665,-0.1782,-0.1784,-0.1786,-0.183,0,0,0,0,0,0,-0.1411,-0.1417,-0.1432,-0.145,-0.1459,-0.1501,-0.1499,-0.1506,-0.1544,-0.1548,-0.1595,-0.1602,-0.1609,-0.1671,-0.1679,-0.171,-0.1668,-0.1781,-0.1783,-0.1785,-0.1827,-0.1833,-0.1838,0,0,0,0,0,-0.1409,-0.1423,-0.1432,-0.1438,-0.1473,-0.1502,-0.151,-0.1535,-0.1546,-0.1568,-0.1601,-0.1602,-0.1691,-0.1675,-0.1685,-0.1717,-0.178,-0.1782,-0.1785,-0.1825,-0.1832,-0.1838,0,0,0,0,0,0,-0.1409,-0.1429,-0.1439,-0.146,-0.1488,-0.1509,-0.1533,-0.1551,-0.1594,-0.1606,-0.1624,-0.1634,-0.1694,-0.17,-0.1682,-0.1759,-0.1733,-0.1738,-0.176,-0.1767,-0.1773,-0.1761,-0.1671,0,0,0,0,0,-0.1415,-0.1431,-0.1454,-0.1474,-0.1489,-0.1518,-0.1538,-0.1558,-0.159,-0.161,-0.1644,-0.1677,-0.1708,-0.1734,-0.1762,-0.1812,-0.1792,-0.1836,-0.1842,-0.1847,-0.1844,-0.1845,-0.1851,-0.1796,-0.1796,-0.1796,0,0,-0.1422,-0.1434,-0.1445,-0.1476,-0.1499,-0.1531,-0.1532,-0.1571,-0.1607,-0.1614,-0.1683,-0.1705,-0.1726,-0.1777,-0.1804,-0.1791,-0.1851,-0.185,-0.1854,-0.1848,-0.1849,-0.1854,-0.1859,-0.1798,-0.1797,-0.1797,0,0,-0.1434,-0.1455,-0.1471,-0.1499,-0.1539,-0.1558,-0.1576,-0.1618,-0.1648,-0.1709,-0.1719,-0.1758,-0.1819,-0.1832,-0.1846,-0.1901,-0.1881,-0.1916,-0.1941,-0.1943,-0.1947,-0.195,-0.1922,-0.1922,-0.192,-0.192,-0.192,0,-0.1444,-0.1465,-0.1484,-0.1511,-0.154,-0.1574,-0.1608,-0.1643,-0.1703,-0.1729,-0.174,-0.1819,-0.184,-0.1885,-0.1902,-0.1915,-0.1901,-0.1913,-0.1949,-0.1952,-0.1955,-0.1925,-0.1924,-0.1922,-0.1922,-0.1922,-0.1921,0,-0.1461,-0.1495,-0.151,-0.1553,-0.1589,-0.1626,-0.1672,-0.172,-0.1762,-0.1791,-0.1857,-0.1884,-0.1924,-0.194,-0.1942,-0.1977,-0.1954,-0.1955,-0.1928,-0.1963,-0.1929,-0.1928,-0.1926,-0.1925,-0.1924,-0.1923,0,0,-0.1439,-0.1508,-0.1517,-0.1548,-0.1617,-0.1644,-0.1712,-0.177,-0.181,-0.1871,-0.1915,-0.1971,-0.198,-0.1995,-0.2003,-0.2008,-0.2014,-0.1994,-0.1993,-0.1958,-0.1997,-0.1859,-0.1844,-0.2024,-0.2024,-0.2024,-0.1961,0,-0.1449,-0.1501,-0.1539,-0.1605,-0.1637,-0.1697,-0.1753,-0.1814,-0.1866,-0.1918,-0.1952,-0.1997,-0.2003,-0.2022,-0.2032,-0.2023,-0.2016,-0.2029,-0.1975,-0.1972,-0.184,-0.184,-0.2026,-0.196,-0.196,-0.196,-0.196,0,-0.1444,-0.1484,-0.1545,-0.1629,-0.1649,-0.1701,-0.1788,-0.1842,-0.1918,-0.1956,-0.2005,-0.2028,-0.2058,-0.2051,-0.2048,-0.2059,-0.203,-0.2013,-0.2011,-0.1863,-0.1832,-0.1922,-0.1958,-0.1958,-0.1958,-0.1958,-0.1958,0,-0.1397,-0.1486,-0.1535,-0.1565,-0.1665,-0.1713,-0.1771,-0.1855,-0.1897,-0.1976,-0.2003,-0.2049,-0.2065,-0.2058,-0.2029,-0.2045,-0.1999,-0.2014,-0.1857,-0.1846,-0.1971,-0.1968,-0.1994,-0.1995,-0.1995,-0.1995,-0.1995,0,-0.1373,-0.1416,-0.1523,-0.1549,-0.1614,-0.1696,-0.1765,-0.1828,-0.1907,-0.1939,-0.2013,-0.2026,-0.2069,-0.2052,-0.2027,-0.1921,-0.1995,-0.1845,-0.1819,-0.199,-0.199,-0.1969,-0.1967,-0.1992,-0.1993,-0.1993,-0.1994,0,-0.1304,-0.1376,-0.1437,-0.1552,-0.1591,-0.1637,-0.1751,-0.1789,-0.1878,-0.1919,-0.1941,-0.2007,-0.1979,-0.1982,-0.1953,-0.1891,-0.1823,-0.1764,-0.192,-0.1906,-0.167,-0.1671,-0.1586,-0.1581,-0.1576,-0.1572,-0.1569,0,-0.1269,-0.1294,-0.1417,-0.1454,-0.151,-0.1594,-0.1644,-0.1757,-0.179,-0.1883,-0.188,-0.1896,-0.1917,-0.175,-0.1784,-0.1701,-0.1684,-0.1636,-0.1677,-0.1644,-0.1628,-0.1637,-0.1644,-0.1562,-0.1561,-0.1559,-0.1558,0,-0.1197,-0.1251,-0.1299,-0.1373,-0.1438,-0.1495,-0.1575,-0.1583,-0.1694,-0.1792,-0.1755,-0.1727,-0.1684,-0.1651,-0.1583,-0.1538,-0.1668,-0.1588,-0.1598,-0.1636,-0.1613,-0.1604,-0.1617,-0.1542,-0.1545,-0.1546,-0.1547,0,-0.1139,-0.1153,-0.1221,-0.1272,-0.1346,-0.1365,-0.1427,-0.1456,-0.1497,-0.1605,-0.1586,-0.1605,-0.1663,-0.1562,-0.151,-0.1441,-0.143,-0.1391,-0.1412,-0.143,-0.1408,-0.1358,-0.1169,0,0,0,0,0,-0.1073,-0.1075,-0.1115,-0.1162,-0.1228,-0.1266,-0.1362,-0.1425,-0.1532,-0.1459,-0.1517,-0.1469,-0.1397,-0.1414,-0.1307,-0.1438,-0.1435,-0.1309,-0.1403,-0.1454,-0.1472,-0.1461,0,0,0,0,0,0,-0.103,-0.106,-0.1072,-0.1052,-0.1061,-0.1117,-0.1168,-0.1247,-0.1217,-0.1327,-0.1289,-0.1372,-0.1317,-0.1419,-0.1272,-0.1274,-0.13,-0.1331,-0.1327,-0.1443,-0.146,-0.1475,-0.147,0,0,0,0,0]},{"header":{"parameterUnit":"m.s-1","parameterCategory":2,"la1":30.2991,"la2":30.254,"lo1":-89.0895,"lo2":-89.0444,"dy":0.0017,"dx":0.0017,"nx":28,"ny":28,"refTime":"2025-04-27T09:00:00:Z","depth":"4","parameterNumber":3,"parameterNumberName":"V-component_of_CURRENTS"},"data":[0,0,0,0,0,0,0,0,0,0,0,0,0,0,0,0,0,0,0,0,0,0,0,0,0,0,0,0,0,0,0,0,0,0,0,0,0,0,0,0,0,0,0,0,0,0,0,0,0,0,0,0,0,0,0,0,0,0,-0.0286,-0.0286,0,-0.0235,-0.0235,-0.0234,-0.0198,-0.0198,-0.0198,-0.0198,-0.0114,-0.0112,-0.011,0,0,0,0,0,0,0,0,0,0,0,0,0,-0.0293,-0.0293,-0.0286,-0.0286,-0.0285,-0.0236,-0.0235,-0.0234,-0.0198,-0.0198,-0.0198,-0.0198,-0.0115,-0.0113,-0.011,0,0,0,0,0,0,0,0,0,0,0,0,0,-0.0269,-0.0293,-0.0287,-0.0263,-0.026,-0.0236,-0.0235,-0.0234,-0.0198,-0.0198,-0.0198,-0.0198,-0.0116,-0.0113,-0.011,-0.0095,0,0,-0.01,-0.0099,0,0,0,0,0,0,0,0,-0.0271,-0.0269,-0.0267,-0.0264,-0.0262,-0.0224,-0.0206,-0.0186,-0.0198,-0.022,-0.0198,-0.0198,-0.0149,-0.0143,-0.0133,-0.0091,-0.0087,-0.01,-0.0098,-0.0097,-0.0096,0,0,0,0,0,0,0,-0.0273,-0.0271,-0.0265,-0.0266,-0.0263,-0.0234,-0.0231,-0.0202,-0.0185,-0.0218,-0.0216,-0.0213,-0.0147,-0.0136,-0.013,-0.0086,-0.01,-0.0097,-0.0095,-0.0094,-0.0019,-0.0018,0,0,0,0,0,0,-0.0285,-0.0273,-0.0266,-0.0263,-0.0267,-0.0235,-0.0231,-0.0235,-0.0186,-0.0179,-0.0213,-0.0211,-0.0141,-0.0134,-0.0127,-0.0102,-0.0097,-0.0094,-0.0092,-0.0019,-0.0019,-0.0018,0,0,0,0,0,0,-0.0286,-0.0286,-0.0268,-0.0267,-0.0263,-0.0235,-0.024,-0.0234,-0.0225,-0.0182,-0.0174,-0.021,-0.0141,-0.0132,-0.0102,-0.0098,-0.0092,-0.009,-0.0019,-0.0019,-0.0018,-0.0053,0,0,0,0,0,0,-0.0286,-0.0286,-0.0295,-0.0269,-0.0264,-0.0259,-0.024,-0.0234,-0.0224,-0.0221,-0.0177,-0.0169,-0.014,-0.0107,-0.0099,-0.0094,-0.0087,-0.0019,-0.0019,-0.0019,-0.0052,-0.0054,-0.0056,0,0,0,0,0,-0.0287,-0.0301,-0.0296,-0.0296,-0.0277,-0.026,-0.0255,-0.0232,-0.0225,-0.0223,-0.0191,-0.0171,-0.01,-0.0105,-0.0095,-0.0089,-0.0019,-0.0019,-0.0019,-0.0052,-0.0054,-0.0056,0,0,0,0,0,0,-0.0306,-0.0298,-0.0292,-0.0303,-0.0286,-0.0255,-0.0254,-0.0238,-0.0212,-0.021,-0.0168,-0.0158,-0.0131,-0.0106,-0.0113,-0.0067,-0.0056,-0.0054,-0.0085,-0.0087,-0.0088,-0.01,-0.0085,0,0,0,0,0,-0.0317,-0.0327,-0.0307,-0.0316,-0.0311,-0.0284,-0.0275,-0.026,-0.0233,-0.0222,-0.019,-0.0155,-0.0122,-0.0103,-0.0073,-0.0048,-0.0019,-0.0037,-0.0039,-0.0041,-0.0044,0.0002,0.0004,-0.0017,-0.0017,-0.0017,0,0,-0.0326,-0.0324,-0.0329,-0.0321,-0.0307,-0.0301,-0.0278,-0.027,-0.026,-0.0217,-0.0195,-0.0163,-0.0118,-0.0089,-0.0075,-0.0067,-0.0019,-0.0041,-0.0043,-0.0044,0.0003,0.0005,0.0007,-0.0017,-0.0017,-0.0017,0,0,-0.0348,-0.0349,-0.0363,-0.0353,-0.0339,-0.032,-0.0321,-0.0293,-0.0276,-0.0253,-0.0218,-0.0182,-0.0138,-0.0099,-0.0075,-0.0068,-0.0034,-0.0062,-0.0076,-0.0031,-0.0029,-0.0026,0.0013,0.0019,-0.0059,-0.006,-0.006,0,-0.0359,-0.0375,-0.0362,-0.0368,-0.0363,-0.0332,-0.0337,-0.0313,-0.0277,-0.0262,-0.0253,-0.0177,-0.014,-0.0092,-0.009,-0.0072,-0.0046,-0.0072,-0.0033,-0.0031,-0.0028,0.0012,0.0019,-0.0061,-0.0061,-0.0061,-0.0061,0,-0.0385,-0.0397,-0.0403,-0.0403,-0.0394,-0.0393,-0.0363,-0.0349,-0.0327,-0.0298,-0.0255,-0.02,-0.0155,-0.0135,-0.011,-0.0069,-0.0058,-0.0045,-0.003,-0.0028,0.0014,0.0022,-0.0064,-0.0063,-0.0062,-0.0062,0,0,-0.041,-0.0422,-0.0424,-0.0432,-0.0414,-0.041,-0.0394,-0.0368,-0.0358,-0.0312,-0.0288,-0.0222,-0.0193,-0.0164,-0.0121,-0.0078,-0.0032,-0.0059,-0.0055,-0.0024,0.0062,0.0046,0.0053,-0.0016,-0.0014,-0.0013,0.0082,0,-0.0433,-0.0462,-0.0455,-0.047,-0.048,-0.045,-0.044,-0.041,-0.0377,-0.0345,-0.0277,-0.024,-0.0203,-0.0183,-0.0133,-0.0062,-0.0013,-0.006,0.0058,0.0062,0.0044,0.0061,-0.001,0.0089,0.0091,0.0092,0.0093,0,-0.0458,-0.0476,-0.0505,-0.0512,-0.0513,-0.0516,-0.0497,-0.0482,-0.0425,-0.0397,-0.0343,-0.0291,-0.0218,-0.0191,-0.0062,-0.0097,-0.0023,0.0036,0.0042,0.0044,0.0061,0.0088,0.0108,0.0107,0.0106,0.0105,0.0104,0,-0.0485,-0.0507,-0.0536,-0.0539,-0.054,-0.0547,-0.0542,-0.0502,-0.0489,-0.0431,-0.0412,-0.0319,-0.0271,-0.0172,-0.0051,-0.0057,0.009,0.01,0.0162,0.0162,0.0162,0.0159,0.0196,0.0196,0.0196,0.0196,0.0195,0,-0.0508,-0.0531,-0.0558,-0.0574,-0.0605,-0.0588,-0.0602,-0.058,-0.0544,-0.0525,-0.0447,-0.0404,-0.0264,-0.0163,-0.0058,0.0072,0.0089,0.0162,0.0187,0.0145,0.0139,0.0168,0.0164,0.0199,0.0199,0.0198,0.0197,0,-0.0527,-0.0546,-0.0584,-0.0609,-0.0622,-0.0643,-0.0654,-0.0655,-0.0618,-0.0591,-0.0574,-0.0459,-0.0327,-0.0185,-0.0011,0.006,0.0188,0.0235,0.0179,0.0198,0.0232,0.0225,0.0307,0.0307,0.0307,0.0307,0.0308,0,-0.0535,-0.056,-0.0618,-0.0651,-0.0669,-0.0699,-0.0718,-0.0697,-0.0689,-0.0618,-0.06,-0.0474,-0.0383,-0.0145,-0.0006,0.0192,0.0221,0.0277,0.0256,0.0228,0.0245,0.0237,0.0229,0.0308,0.0308,0.0308,0.0308,0,-0.0547,-0.0578,-0.0611,-0.0685,-0.0726,-0.0759,-0.0779,-0.0779,-0.074,-0.0712,-0.0601,-0.0472,-0.0319,-0.0139,0.0016,0.0156,0.0228,0.028,0.028,0.0261,0.0231,0.0245,0.0237,0.0309,0.0309,0.0309,0.0309,0,-0.0554,-0.0587,-0.0644,-0.0701,-0.0761,-0.0795,-0.0807,-0.078,-0.0761,-0.0676,-0.0638,-0.0467,-0.0361,-0.0156,-0.0016,0.0118,0.0148,0.0178,0.0184,0.0185,0.0113,0.0055,0.0103,0,0,0,0,0,-0.055,-0.0592,-0.0654,-0.0718,-0.0778,-0.0807,-0.0832,-0.0829,-0.0797,-0.072,-0.0673,-0.0523,-0.0297,-0.0195,-0.0061,-0.0029,0.0152,0.0127,0.0184,0.0313,0.0312,0.0247,0,0,0,0,0,0,-0.0551,-0.0611,-0.0648,-0.0715,-0.076,-0.0814,-0.0832,-0.0815,-0.0759,-0.0708,-0.0578,-0.0504,-0.0278,-0.0364,-0.0058,-0.0019,0.0029,0.0238,0.0241,0.0314,0.0313,0.0312,0.0245,0,0,0,0,0]}]]